Theta_e
307 306 308 308 308 308 307 308 308 308 308 307 308 305 306 307 307 307 308 309 311 313 315 320 324 324 325 330 331 331 331 330 330 329 327 326 326 326 326 325 323 322 318 320
307 309 308 307 307 307 308 308 308 309 309 309 307 307 307 307 308 308 308 308 309 313 314 316 320 325 327 326 324 329 330 330 329 329 327 326 326 325 324 324 323 321 320 319
309 308 308 309 308 309 308 309 309 309 308 307 307 306 307 308 308 308 308 308 308 309 314 316 316 323 326 327 327 325 327 329 329 329 329 327 326 325 324 324 323 321 321 317
308 309 309 309 309 309 310 308 308 309 307 308 306 306 306 306 307 307 308 308 308 309 309 313 312 313 327 326 326 326 325 327 329 329 328 328 327 326 326 324 322 320 319 318
308 308 309 309 310 309 309 308 308 308 310 308 307 303 305 306 306 306 306 306 307 307 308 308 309 309 311 319 324 326 325 326 327 329 329 328 327 327 326 326 326 322 320 320
306 308 308 308 307 308 308 309 307 309 309 302 306 306 306 306 306 307 307 307 307 308 309 308 308 308 308 311 314 322 326 326 327 328 328 328 327 327 326 326 326 325 323 321
304 308 308 307 307 308 308 307 297 302 305 299 307 306 305 307 306 305 304 304 305 306 308 309 309 310 308 309 314 317 323 325 325 326 328 328 327 327 328 327 326 325 324 324
305 302 309 308 308 309 310 309 307 308 306 306 306 307 308 306 304 303 303 303 303 305 305 307 309 309 310 310 310 320 323 324 325 326 327 328 328 328 328 328 327 325 324 325
306 298 305 307 307 309 307 305 309 303 299 304 306 305 306 305 304 303 302 301 302 303 304 304 305 308 310 312 312 313 322 324 323 322 324 327 328 328 328 328 327 327 325 325
302 303 300 306 305 306 308 307 309 302 300 303 304 305 306 304 304 301 300 299 300 300 302 303 304 306 308 310 312 312 314 324 322 321 321 326 327 327 327 327 327 327 327 327
304 306 299 304 305 308 309 308 308 308 307 307 301 303 305 304 302 301 299 299 298 298 299 299 301 304 306 308 309 317 315 324 326 323 323 326 326 326 327 327 327 327 328 327
305 305 302 298 305 306 307 310 310 308 307 305 306 303 303 301 300 300 299 298 297 296 296 297 299 300 302 306 309 319 322 324 323 323 323 324 327 327 327 327 324 324 324 327
303 304 299 299 303 303 303 306 306 306 307 309 309 305 301 300 300 299 298 297 296 295 295 297 296 297 299 300 304 315 320 322 323 323 324 326 327 328 328 327 326 325 326 326
303 303 305 304 307 306 302 305 304 305 302 305 306 304 302 301 299 299 298 297 296 295 294 297 296 295 295 297 299 311 317 319 320 323 324 324 325 326 325 326 327 327 328 327
303 304 300 302 304 305 306 307 303 303 304 305 303 303 303 301 300 299 297 297 297 296 296 296 296 295 295 295 299 305 309 312 313 316 316 318 319 320 324 324 324 324 327 326
300 299 303 298 303 304 305 307 300 298 304 304 303 303 302 300 300 298 298 298 297 297 297 297 299 298 297 298 300 302 305 306 307 310 310 311 313 315 319 318 319 319 322 323
299 301 301 299 303 301 305 303 303 304 303 304 300 303 301 301 300 297 297 298 297 296 295 296 296 296 297 298 299 300 302 302 303 305 305 307 308 309 310 310 311 310 312 313
298 298 302 304 298 304 301 303 302 303 302 302 303 303 301 301 301 297 297 297 296 296 296 296 296 296 296 295 296 297 299 299 299 299 300 301 302 303 306 307 309 308 310 310
299 299 299 302 306 302 302 304 303 304 302 302 302 303 303 303 303 299 297 297 297 297 296 296 296 296 296 296 297 297 297 297 298 298 298 299 299 299 300 300 300 301 301 302
298 298 300 293 306 302 303 304 303 303 304 302 303 302 301 300 299 297 297 297 297 296 296 295 295 296 296 296 296 296 296 297 297 297 297 297 297 298 298 298 298 299 299 299
285 292 299 290 303 302 303 303 304 304 306 304 303 302 301 298 299 298 297 296 296 296 297 296 296 296 296 296 296 296 296 296 296 296 296 296 297 297 297 297 297 297 298 298
293 293 296 298 303 301 302 302 303 303 304 304 303 302 301 299 298 298 297 296 296 296 297 297 297 296 296 296 296 296 296 295 295 295 296 296 296 296 296 296 296 296 296 296
291 296 296 297 298 301 303 303 304 304 304 302 302 302 301 300 298 298 297 296 296 295 296 297 296 296 296 296 296 296 295 295 295 295 295 296 296 296 295 295 295 295 295 295
292 296 293 292 293 299 303 303 303 303 303 303 301 300 301 300 298 298 297 295 295 295 295 297 296 296 296 296 296 295 295 295 295 295 295 295 295 295 295 294 294 294 293 293
292 294 289 292 294 296 297 300 302 302 302 302 300 300 299 299 298 296 295 294 294 294 295 296 296 296 297 296 296 296 296 296 295 295 294 294 294 294 294 293 292 291 290 290
294 292 293 294 297 296 297 298 299 302 303 303 300 299 299 298 296 294 294 294 294 294 295 295 296 296 296 296 296 296 296 296 295 294 294 294 294 294 294 293 292 290 290 290
Wind_Speed
5 5 6 6 6 4 4 4 8 10 12 7 4 7 9 21 21 19 25 22 19 16 11 20 33 31 31 35 35 34 37 38 40 37 34 35 38 35 34 33 31 29 28 30
3 6 5 6 4 3 2 3 6 9 7 8 8 14 16 16 22 24 18 24 19 17 21 16 17 32 33 33 30 33 35 37 40 42 39 38 37 37 35 33 33 32 30 33
2 3 9 4 3 3 4 4 3 5 8 4 9 6 3 5 19 26 27 21 22 20 17 23 14 24 35 34 34 31 32 35 37 38 44 40 36 34 35 36 34 33 33 33
3 5 7 7 5 6 5 6 6 7 7 3 6 4 8 9 6 2 15 18 24 28 27 25 22 12 31 32 31 29 30 34 37 35 40 48 44 41 41 39 37 34 35 35
4 6 6 6 6 8 2 3 3 4 5 5 2 4 7 5 9 9 14 18 23 17 19 24 24 27 24 24 30 31 32 33 37 40 41 46 51 32 42 41 40 37 36 37
6 3 3 3 6 3 6 5 5 1 2 2 3 4 5 3 5 5 18 24 27 27 24 15 13 17 16 19 25 31 33 35 37 38 42 44 41 36 38 44 41 42 40 39
7 3 1 1 4 3 4 3 3 4 3 5 2 3 6 6 9 11 14 27 33 28 26 25 23 22 17 15 16 31 35 36 35 39 40 43 42 38 36 36 42 42 43 42
5 7 2 1 1 3 4 2 1 3 2 4 6 4 3 3 9 16 20 23 30 29 28 26 24 25 25 24 18 16 38 36 35 36 39 43 44 40 40 38 40 44 44 44
6 6 5 4 3 1 3 2 3 0 1 2 3 5 4 16 18 28 29 26 27 28 30 29 28 25 27 25 24 20 26 42 38 35 36 41 42 43 40 34 38 39 41 41
2 5 2 4 3 5 2 4 1 2 3 4 4 4 5 19 19 20 22 23 24 27 25 25 26 26 28 27 28 27 25 38 42 37 35 40 39 40 38 33 35 38 36 34
3 3 7 4 1 3 1 1 2 2 2 2 2 4 5 9 12 15 23 28 24 25 25 24 23 25 25 28 29 19 25 30 36 34 33 38 37 35 35 35 28 30 38 38
2 1 5 7 5 4 3 4 2 2 3 3 2 3 3 10 13 16 20 23 22 25 23 22 18 16 14 11 8 10 17 23 26 28 28 30 32 32 33 32 29 22 23 38
2 1 4 8 2 3 3 3 2 6 3 4 2 3 4 11 14 21 23 26 29 32 30 27 23 21 17 13 8 5 7 15 22 23 25 25 33 33 31 30 29 23 27 25
4 2 4 4 3 1 3 2 5 2 1 4 3 5 14 16 15 22 26 27 33 34 34 34 32 29 25 21 20 22 14 11 8 10 14 20 19 23 22 28 33 31 29 26
2 2 3 8 11 9 7 5 5 2 4 3 2 2 5 10 11 17 20 28 34 34 36 36 34 32 31 28 31 31 30 25 19 14 11 12 9 10 17 21 24 22 23 24
3 2 2 4 4 3 6 7 3 2 3 2 3 2 4 7 12 17 22 25 25 24 26 27 29 31 33 37 36 34 33 30 26 24 22 18 14 6 4 3 5 8 13 17
0 2 3 4 1 3 5 5 4 2 1 1 2 1 4 3 8 12 15 16 17 18 20 23 26 28 28 29 28 30 31 28 25 23 23 22 20 17 15 13 11 12 8 7
2 0 1 3 3 1 4 2 4 2 3 4 4 6 9 7 1 10 11 12 13 16 19 21 22 24 25 26 28 26 25 23 21 22 22 22 18 16 15 12 12 12 13 15
6 1 3 0 2 5 2 5 6 5 5 9 5 7 10 10 7 5 9 9 11 12 15 18 19 20 23 25 26 26 26 24 23 26 25 23 21 19 16 14 14 12 11 13
4 1 1 3 2 4 4 3 8 4 3 18 15 8 3 1 2 3 6 6 7 8 11 15 17 21 23 24 25 25 27 27 28 27 25 24 22 21 21 19 18 17 14 13
2 1 5 4 3 6 3 11 8 4 4 20 15 8 4 3 3 1 3 5 6 7 8 11 14 18 20 21 23 24 25 28 25 24 23 23 24 23 23 22 22 22 21 20
7 7 4 3 5 7 14 8 6 5 11 16 12 10 8 6 6 4 1 2 3 4 4 7 10 14 16 18 20 22 24 24 23 23 23 24 25 25 24 24 26 26 28 28
2 6 4 9 6 3 29 6 15 12 16 16 14 12 10 10 9 7 5 3 2 2 3 5 7 10 13 15 19 20 22 21 21 22 23 24 24 24 25 26 27 28 30 31
4 6 3 4 4 15 17 25 15 15 16 16 14 13 14 12 10 8 6 4 3 3 2 1 3 6 10 14 17 19 20 21 21 21 21 21 21 22 24 25 26 27 29 30
5 10 6 6 11 12 19 27 24 20 20 18 16 14 12 11 10 9 8 8 6 4 3 2 1 5 8 11 13 15 17 19 20 20 20 21 22 23 24 25 27 28 29 30
13 8 6 8 14 6 6 7 29 26 25 22 19 16 14 12 10 9 8 8 8 6 4 3 2 2 5 8 10 13 16 19 19 20 20 21 21 22 22 23 23 24 24 26
Wind_Direction
37 41 46 24 23 52 22 333 314 305 302 335 319 275 278 291 298 289 280 282 288 266 265 247 239 228 215 215 220 214 212 215 218 211 210 213 215 216 221 227 230 228 217 207
26 73 29 337 69 28 330 325 306 295 345 333 303 283 266 261 265 269 275 282 286 301 278 282 255 236 218 213 220 221 217 218 217 220 214 214 219 221 226 230 232 230 223 212
352 290 325 13 12 337 347 322 337 316 330 302 348 305 355 279 249 255 263 270 275 278 282 269 287 249 226 218 220 226 226 223 218 218 221 220 221 226 227 230 233 231 229 218
296 9 10 352 351 3 313 13 9 346 2 305 54 291 333 326 345 276 267 266 266 264 265 266 277 284 237 232 231 233 236 231 223 220 225 223 225 224 230 232 235 235 233 226
296 355 14 4 16 342 325 334 286 292 286 339 301 66 274 310 17 7 23 24 25 353 329 288 276 276 260 250 246 242 240 239 233 227 223 223 224 234 236 238 241 238 235 234
260 269 348 327 318 317 333 316 330 261 84 356 246 129 283 29 13 12 5 4 2 1 349 343 345 299 304 263 251 244 245 242 238 233 227 222 221 226 236 236 239 240 238 235
330 346 212 260 349 26 29 15 356 2 0 212 82 100 263 51 34 29 4 353 346 343 345 339 326 322 303 310 288 250 240 244 243 239 234 228 226 229 232 239 238 240 239 238
358 332 320 66 348 347 333 356 105 306 334 278 319 227 160 23 32 26 10 354 348 334 330 332 321 312 306 298 289 274 251 239 243 245 240 238 233 231 232 236 240 239 243 242
354 289 333 52 337 44 313 334 339 210 349 11 266 293 207 -0 1 359 358 353 339 337 329 325 315 307 303 296 287 275 249 244 239 247 246 239 238 235 237 237 238 242 243 245
195 292 282 313 18 30 341 338 311 22 28 318 307 318 320 351 339 334 339 339 336 332 327 325 320 311 301 300 289 279 272 237 241 245 246 241 238 238 238 239 235 240 246 247
138 185 290 336 37 334 341 343 256 264 189 199 297 290 11 328 337 334 338 337 334 339 337 332 317 308 301 297 292 281 264 233 234 240 242 242 243 247 237 239 237 243 245 251
106 340 282 237 296 309 310 23 302 232 299 218 179 270 343 351 342 345 343 345 349 0 356 0 354 332 327 314 295 255 236 222 224 230 236 246 249 250 246 238 247 256 257 256
135 258 323 346 3 4 53 5 290 272 259 216 213 285 33 358 360 5 358 360 7 13 14 13 16 17 16 27 48 133 181 216 221 225 229 224 221 230 240 250 250 247 250 254
134 228 200 229 251 326 307 294 322 257 280 339 284 335 359 6 2 359 1 7 19 21 21 31 25 24 26 33 56 88 112 124 140 194 216 226 232 223 224 223 229 233 238 251
152 265 202 263 261 257 250 273 325 284 258 253 321 67 355 356 346 347 5 20 25 20 23 32 30 31 37 42 64 76 83 87 90 108 115 127 155 193 220 240 251 251 244 245
20 272 317 289 17 225 257 260 305 264 319 332 111 69 7 353 -0 13 22 25 24 28 29 29 32 31 32 44 49 59 66 73 77 80 81 80 78 102 212 231 251 279 242 246
229 310 331 274 335 276 278 210 189 254 274 255 108 187 242 286 347 4 17 21 18 17 19 30 34 36 44 44 46 51 51 51 55 65 71 68 62 58 54 46 33 25 20 355
157 260 208 279 359 304 247 142 168 186 230 211 185 212 221 250 246 34 15 16 19 23 29 33 36 45 49 56 59 63 65 64 55 57 58 59 56 50 42 32 25 11 4 358
169 267 303 231 278 282 307 198 189 187 260 206 186 212 257 284 242 272 356 14 18 27 33 36 40 47 51 53 58 60 63 63 63 61 59 56 54 52 47 40 30 18 5 349
175 228 286 346 255 246 242 171 147 133 286 178 199 196 224 318 130 260 353 357 10 26 35 39 42 48 50 52 53 52 53 53 52 51 51 50 50 49 48 45 39 29 19 4
103 224 219 239 264 282 189 153 138 97 230 173 188 192 187 170 178 113 2 350 1 18 33 41 45 48 49 48 48 49 49 50 47 48 48 49 49 48 45 44 43 41 39 35
170 149 198 192 220 279 157 127 177 179 151 168 186 194 191 181 178 179 230 315 354 2 22 42 46 46 48 48 45 47 49 48 46 47 47 45 45 43 41 38 37 33 31 30
249 189 179 182 212 234 183 203 194 182 181 188 196 197 195 190 195 204 226 254 330 3 11 26 31 38 43 43 43 43 44 42 40 44 44 40 38 37 37 35 34 32 29 26
236 186 196 48 245 216 212 220 222 212 209 201 200 194 193 197 204 221 236 263 301 319 330 10 45 33 32 32 34 37 36 35 33 33 35 39 39 36 35 35 35 32 29 25
200 148 178 262 272 255 244 230 226 218 209 207 203 202 199 202 214 232 252 266 270 273 261 262 4 23 29 28 29 30 30 29 27 25 31 32 33 36 40 39 37 34 29 25
189 185 174 222 205 194 218 243 215 212 209 209 209 207 210 219 233 258 272 272 260 249 249 252 251 351 15 19 22 23 22 24 23 22 28 30 31 34 34 35 40 40 36 27